Location: Home
(42.5358°N, 72.7383°W)
Time: 12:18:11
(UTC-05:00)

A-11 Canister half - Pass Details

Date: 07 December 2021
Orbit: 1524 x 1684 km, 47.3° (Epoch: 19 January)

Event Time Altitude Azimuth Distance (km) Brightness Sun altitude
Rises 22:30:04 0° 201° (SSW) 4,886 - -65.1°
Reaches altitude 10° 22:33:33 10° 193° (SSW) 3,916 - -65.5°
Maximum altitude 22:42:18 35° 132° (SE) 2,483 - -66.5°
Drops below altitude 10° 22:51:04 10° 72° (ENE) 3,945 - -67.5°
Sets 22:54:35 0° 64° (ENE) 4,926 - -67.8°
